Location: Unspecified
(0.0000°N, 0.0000°E)
Time: 06:07:23
(UTC+00:00)

Envisat - Pass Details

Date: 15 October 2019
Orbit: 764 x 766 km, 98.1° (Epoch: 14 October)

Event Time Altitude Azimuth Distance (km) Brightness Sun altitude
Rises 18:41:49 0° 173° (S) 3,230 6.3 -13.8°
Reaches altitude 10° 18:44:09 10° 176° (S) 2,302 5.5 -14.4°
Maximum altitude 18:49:11 67° 258° (WSW) 827 3.4 -15.7°
Drops below altitude 10° 18:54:11 10° 340° (NNW) 2,291 5.6 -16.9°
Sets 18:56:30 0° 343° (NNW) 3,214 6.3 -17.5°
